CW2840 Weather Reports


Display with metric or nautical units.
time (UTC)temp
F
wind
direction
speed
MPH
gust
MPH
rain 1hr
in
rain 24hr
in
rain mn
in
humidity
%
barometer
mb
20260505230117 84 135 4.0 14.0 0.00 0.00 0.00 68 1006.6
20260505225323 84 247 5.0 18.0 0.00 0.00 0.00 68 1006.5
20260505223115 84 188 6.0 20.0 0.00 0.00 0.00 67 1006.5
20260505221613 85 200 2.0 14.0 0.00 0.00 0.00 68 1006.4
20260505220106 85 147 5.0 14.0 0.00 0.00 0.00 67 1006.6
20260505214604 85 209 4.0 13.0 0.00 0.00 0.00 68 1007.0
20260505213103 84 227 5.0 14.0 0.00 0.00 0.00 67 1007.1
20260505211605 84 204 3.0 13.0 0.00 0.00 0.00 68 1007.2
20260505210752 84 128 7.0 14.0 0.00 0.00 0.00 68 1007.4
20260505204605 85 171 5.0 11.0 0.00 0.00 0.00 69 1007.7
20260505203103 85 213 6.0 13.0 0.00 0.00 0.00 67 1007.9
20260505201603 85 138 2.0 20.0 0.00 0.00 0.00 66 1008.0
20260505200103 85 210 10.0 16.0 0.00 0.00 0.00 67 1008.2
20260505194603 85 180 6.0 13.0 0.00 0.00 0.00 68 1008.3
20260505193103 82 188 3.0 14.0 0.00 0.00 0.00 72 1008.6
20260505191603 83 217 5.0 14.0 0.00 0.00 0.00 69 1008.6
20260505190104 83 168 3.0 13.0 0.00 0.00 0.00 71 1008.7
20260505185308 82 178 5.0 13.0 0.00 0.00 0.00 71 1008.9
20260505183103 81 161 3.0 14.0 0.00 0.00 0.00 73 1009.0
20260505181604 81 185 7.0 13.0 0.00 0.00 0.00 72 1009.1
20260505180103 82 178 7.0 16.0 0.00 0.00 0.00 72 1009.1
20260505174604 81 197 6.0 20.0 0.00 0.00 0.00 72 1009.2
20260505173103 80 216 6.0 14.0 0.00 0.00 0.00 75 1009.5
20260505171603 79 203 4.0 14.0 0.00 0.00 0.00 76 1009.6
20260505170104 79 193 5.0 11.0 0.00 0.00 0.00 77 1009.6
20260505164603 79 224 5.0 11.0 0.00 0.00 0.00 76 1009.5
20260505163103 79 196 5.0 9.0 0.00 0.00 0.00 76 1009.8
20260505161603 79 216 3.0 13.0 0.00 0.00 0.00 76 1009.7
20260505160104 78 188 6.0 11.0 0.00 0.00 0.00 77 1009.6
20260505151603 78 165 5.0 11.0 0.00 0.00 0.00 78 1009.4
20260505150104 77 179 8.0 14.0 0.00 0.00 0.00 78 1009.4
20260505130104 74 127 5.0 13.0 0.00 0.00 0.00 82 1009.2
20260505124602 74 175 4.0 13.0 0.00 0.00 0.00 83 1008.4
20260505124458 73 161 5.0 11.0 0.00 0.00 0.00 83 1008.8
20260505121601 73 195 2.0 9.0 0.00 0.00 0.00 84 1008.8
20260505114601 72 178 5.0 9.0 0.00 0.00 0.00 83 1008.4
20260505114450 72 178 2.0 7.0 0.00 0.00 0.00 83 1008.5
20260505111600 72 159 4.0 9.0 0.00 0.00 0.00 84 1008.5
20260505101559 72 199 3.0 9.0 0.00 0.00 0.00 83 1008.5
20260505100059 71 192 4.0 11.0 0.00 0.00 0.00 83 1008.7
20260505094559 71 182 2.0 9.0 0.00 0.00 0.00 83 1008.6
20260505093100 71 180 3.0 9.0 0.00 0.00 0.00 83 1008.7
20260505091558 71 192 3.0 7.0 0.00 0.00 0.00 83 1009.0
20260505090754 71 209 2.0 7.0 0.00 0.00 0.00 83 1008.9
20260505084557 71 171 4.0 9.0 0.00 0.00 0.00 82 1008.9
20260505083058 71 169 3.0 9.0 0.00 0.00 0.00 81 1009.0
20260505081557 71 168 4.0 9.0 0.00 0.00 0.00 81 1009.2
20260505080056 72 182 2.0 11.0 0.00 0.00 0.00 80 1009.3
20260505075248 71 157 4.0 9.0 0.00 0.00 0.00 80 1009.4
20260505073057 71 192 3.0 9.0 0.00 0.00 0.00 80 1009.4
20260505071555 71 243 3.0 9.0 0.00 0.00 0.00 79 1009.7
20260505070057 71 212 4.0 9.0 0.00 0.00 0.00 79 1009.7
20260505064554 71 180 3.0 7.0 0.00 0.00 0.00 78 1009.9
20260505063057 71 217 4.0 9.0 0.00 0.00 0.00 78 1010.1
20260505061555 71 176 3.0 7.0 0.00 0.00 0.00 78 1010.2
20260505060053 71 178 2.0 5.0 0.00 0.00 0.00 77 1010.2
20260505054553 71 169 2.0 7.0 0.00 0.00 0.00 77 1010.2
20260505053054 72 188 3.0 7.0 0.00 0.00 0.00 76 1010.4
20260505051552 72 169 4.0 11.0 0.00 0.00 0.00 75 1010.6
20260505040050 74 118 5.0 22.0 0.00 0.00 0.00 71 1010.8
20260505035406 74 165 7.0 20.0 0.00 0.00 0.00 71 1010.8
20260505035149 74 186 6.0 13.0 0.00 0.00 0.00 71 1011.0
20260505032248 74 141 6.0 14.0 0.00 0.00 0.00 71 1011.0
20260505030050 74 182 4.0 16.0 0.00 0.00 0.00 70 1010.9
20260505024549 74 172 5.0 13.0 0.00 0.00 0.00 70 1010.7
20260505023049 75 173 4.0 13.0 0.00 0.00 0.00 69 1010.7
20260505022244 75 161 6.0 16.0 0.00 0.00 0.00 69 1010.7
20260505020750 75 148 5.0 11.0 0.00 0.00 0.00 69 1010.5
20260505014548 75 147 4.0 11.0 0.00 0.00 0.00 69 1010.4
20260505013047 75 175 5.0 9.0 0.00 0.00 0.00 69 1010.2
20260505011548 75 188 4.0 9.0 0.00 0.00 0.00 68 1010.2
20260505010047 76 171 3.0 11.0 0.00 0.00 0.00 66 1010.3
20260505004546 77 168 2.0 9.0 0.00 0.00 0.00 65 1010.2
20260505003048 77 166 6.0 9.0 0.00 0.00 0.00 65 1010.1
20260505001546 77 178 4.0 9.0 0.00 0.00 0.00 64 1010.1
20260505000740 78 179 4.0 11.0 0.00 0.00 0.00 63 1010.3
20260504234545 79 158 6.0 16.0 0.00 0.00 0.00 61 1010.3
20260504233045 79 161 6.0 16.0 0.00 0.00 0.00 59 1010.3
20260504231544 80 186 4.0 16.0 0.00 0.00 0.00 57 1010.6